This demonstration page uses our WeatherBlox Daily Observations layout. Learn more.

41.55636, -103.73856

Hourly Observations for December 15, 2016

Temp ( °F °C ) Dew Point ( °F °C ) Humidity (%) Winds ( mph kmh ) Pressure ( in mb ) Visibility ( mi km ) Precip ( " mm )
12:15 am 00:15 Cloudy with Light Snow 18 -7.8 15 -9.4 88 88 ESE 9 15 30.39 1029 2 3.21868 0 0.0254
12:25 am 00:25 Cloudy with Light Snow 19 -7.2 15 -9.4 84 84 SE 9 15 30.36 1028 1.25 2.011675 0 0.0254
12:53 am 00:53 Cloudy with Light Snow 19 -7.2 16 -8.9 88 88 ESE 9 15 30.31 1026 1.75 2.816345 0 0.0254
1:00 am 01:00 Cloudy with Light Snow 19 -7 16 -9 86 86 ESE 10 17 30.36 1028 3 4.82802 0 0
1:15 am 01:15 Cloudy with Light Snow 19 -7.2 15 -9.4 84 84 ESE 14 22 30.36 1028 3 4.82802 0 0.0254
1:53 am 01:53 Cloudy 19 -7.2 15 -9.4 84 84 ESE 15 24 30.22 1023 10 16.0934 0 0.0254
2:37 am 02:37 Cloudy with Light Snow 19 -7.2 15 -9.4 84 84 ESE 14 22 30.3 1026 3 4.82802 0 0.0254
2:45 am 02:45 Cloudy with Light Snow 19 -7 16 -9 86 86 ESE 14 22 30.3 1026 5 8.0467 0 0
2:53 am 02:53 Cloudy with Light Snow 19 -7.2 15 -9.4 84 84 ESE 16 26 30.18 1022 8 12.87472 0 0.0254
3:53 am 03:53 Mostly Cloudy 20 -6.7 11 -11.7 68 68 SE 13 20 30.1 1019 10 16.0934 0 0.0254
4:53 am 04:53 Cloudy 20 -6.7 7 -13.9 57 57 SE 16 26 30.07 1018 10 16.0934 0 0
5:53 am 05:53 Clear 19 -7.2 6 -14.4 57 57 SE 13 20 30.04 1017 10 16.0934 0 0
6:53 am 06:53 Clear 18 -7.8 7 -13.9 62 62 ESE 14 22 30.02 1017 10 16.0934 0 0
7:53 am 07:53 Mostly Cloudy 19 -7.2 8 -13.3 62 62 ESE 16 26 29.99 1016 10 16.0934 0 0
8:53 am 08:53 Mostly Sunny 20 -6.7 9 -12.8 62 62 ESE 12 19 29.98 1015 10 16.0934 0 0
9:53 am 09:53 Mostly Cloudy 22 -5.6 12 -11.1 66 66 ESE 14 22 29.95 1014 10 16.0934 0 0
10:53 am 10:53 Sunny 23 -5 13 -10.6 65 65 ESE 13 20 29.9 1013 10 16.0934 0 0
11:53 am 11:53 Sunny 24 -4.4 14 -10 65 65 ESE 15 24 29.85 1011 10 16.0934 0 0
12:53 pm 12:53 Sunny 25 -3.9 16 -8.9 69 69 E 10 17 29.81 1009 10 16.0934 0 0
1:53 pm 13:53 Sunny 26 -3.3 17 -8.3 69 69 E 10 17 29.79 1009 10 16.0934 0 0
2:53 pm 14:53 Sunny 27 -2.8 19 -7.2 72 72 E 8 13 29.78 1008 10 16.0934 0 0
3:53 pm 15:53 Sunny 27 -2.8 19 -7.2 72 72 E 9 15 29.77 1008 10 16.0934 0 0
4:53 pm 16:53 Clear 26 -3.3 19 -7.2 75 75 ESE 8 13 29.77 1008 10 16.0934 0 0
5:53 pm 17:53 Clear 24 -4.4 18 -7.8 77 77 ESE 8 13 29.78 1008 10 16.0934 0 0
6:53 pm 18:53 Clear 24 -4.4 18 -7.8 77 77 ESE 10 17 29.77 1008 10 16.0934 0 0
7:53 pm 19:53 Mostly Clear 24 -4.4 18 -7.8 77 77 ESE 6 9 29.75 1007 10 16.0934 0 0
8:53 pm 20:53 Clear 22 -5.6 16 -8.9 78 78 E 5 7 29.74 1007 10 16.0934 0 0
9:53 pm 21:53 Clear 22 -5.6 15 -9.4 75 75 ENE 5 7 29.72 1007 10 16.0934 0 0
10:53 pm 22:53 Clear 22 -5.6 16 -8.9 78 78 E 5 7 29.71 1006 10 16.0934 0 0
11:53 pm 23:53 Clear 21 -6.1 14 -10 74 74 NNE 21 33 29.73 1007 10 16.0934 0 0

Powered by AerisWeather